Showing default

COSMOS 2442 (GLONASS), 33378

Orbit data source: Space-Track

COSMOS 2442 (GLONASS), 33378 is a Commonwealth of Independent States-origin payload satellite in MEO that was launched on Thu, 25 Sep 2008 UTC via a PROTON-M/DM-2 launch vehicle from the Tyuratam Missile And Space Complex (TTMTR). Payload-class satellites include a variety of spacecraft equipped with specific instruments for various scientific and technological missions. These include communications satellites like Starlink; space stations such as the ISS; scientific satellites like the Hubble; Earth observation satellites from companies like Planet Labs, Umbra, and HawkEye 360; GPS; miniature CubeSats for education and research; and military/defense satellites.

Loading next visibility...
Identifier
33378, 2008-046A
Orbit
MEO
Country
Flag of CISCIS
Related business
Manufacturer
Resehetnev ISS
Mission
Non-operational Defense Navigation
Bus & Motor
URAGAN, Unknown motor
Mass
1,450 kg wet, ~1,200 kg dry
Launch date (UTC)
2008-09-25 (17 years ago)
Launch vehicle
PROTON-M/DM-2
Launch site
Tyuratam Missile And Space Complex (TTMTR)
Object type
Payload
Rocket body
Debris
Shape & HBR
Cyl + 1 Ant + 2 Pan, 3.9 m
Radar Cross Section
8.467 m², Large (>1 m²)

Expand to show TLE details & history
Last TLE update: 1 week ago

TLE from 1 week ago
0 COSMOS 2442 (GLONASS)
1 33378U 08046A   26055.38817031 -.00000050  00000-0  00000-0 0  9997
2 33378  65.5271 318.6734 0018177 313.0546 250.1620  2.13108797135542
Epoch: 2026-02-24T09:18Z
TLE epoch observation values (Epoch: 2026-02-24T09:18:57.914Z)
Latitude
-20.89444°
Longitude
-145.34772°
Altitude
19,151.065 km
Speed
3.95 km/s
True Right ascension
09h 54m 38s
True Declination
-20° 51' 45"
Sunlit
Object was in daylight at epoch
Visualization orbit readout
Latitude
Unknown
Longitude
Unknown
Altitude
Unknown
Speed
Unknown
Apparent Right ascension
Unknown
Apparent Declination
Unknown
Sunlit
N/A
Visualization observer readout
Local Sidereal Time
20:45:32
Azimuth
Unknown
Elevation
Unknown
Doppler factor
Unknown
Orbital elements
Apogee altitude
19,175.306 km
Perigee altitude
19,082.578 km
Semi-major axis
25,507.079 km
Eccentricity
0.00182
Inclination
65.5271°
RAAN
318.6734°
Arg. of periapsis
313.0546°
True anomaly
249.96622°
Mean anomaly
250.162°
Eccentric anomaly
250.06409°
Mean motion
0.53279 °/min
Orbital period
675.69 mins
BSTAR
0
Loading maneuver chart data...
Computing Atmospheric mass density...
Loading historical data...
Loading historical data...
Loading historical data...
Loading historical data...
Loading historical data...
Loading historical data...
Loading historical data...

Documentation

Showing up to 5 results
|